Year,Month,Day,Hour,Minute,Value (Times are PST for temperature in C)
2015,05,21,00,00,16.30
2015,05,21,00,01,16.30
2015,05,21,00,02,16.30
2015,05,21,00,03,16.30
2015,05,21,00,04,16.20
2015,05,21,00,05,16.20
2015,05,21,00,06,16.20
2015,05,21,00,07,16.20
2015,05,21,00,08,16.20
2015,05,21,00,09,16.20
2015,05,21,00,10,16.20
2015,05,21,00,11,16.20
2015,05,21,00,12,16.30
2015,05,21,00,13,16.30
2015,05,21,00,14,16.30
2015,05,21,00,15,16.40
2015,05,21,00,16,16.40
2015,05,21,00,17,16.40
2015,05,21,00,18,16.50
2015,05,21,00,19,16.50
2015,05,21,00,20,16.50
2015,05,21,00,21,16.50
2015,05,21,00,22,16.50
2015,05,21,00,23,16.50
2015,05,21,00,24,16.50
2015,05,21,00,25,16.50
2015,05,21,00,26,16.40
2015,05,21,00,27,16.40
2015,05,21,00,28,16.40
2015,05,21,00,29,16.40
2015,05,21,00,30,16.30
2015,05,21,00,31,16.30
2015,05,21,00,32,16.30
2015,05,21,00,33,16.30
2015,05,21,00,34,16.30
2015,05,21,00,35,16.20
2015,05,21,00,36,16.20
2015,05,21,00,37,16.20
2015,05,21,00,38,16.20
2015,05,21,00,39,16.20
2015,05,21,00,40,16.10
2015,05,21,00,41,16.10
2015,05,21,00,42,16.10
2015,05,21,00,43,16.10
2015,05,21,00,44,16.10
2015,05,21,00,45,16.00
2015,05,21,00,46,16.00
2015,05,21,00,47,15.90
2015,05,21,00,48,15.90
2015,05,21,00,49,15.90
2015,05,21,00,50,15.80
2015,05,21,00,51,15.80
2015,05,21,00,52,15.80
2015,05,21,00,53,15.70
2015,05,21,00,54,15.70
2015,05,21,00,55,15.70
2015,05,21,00,56,15.60
2015,05,21,00,57,15.60
2015,05,21,00,58,15.50
2015,05,21,00,59,15.50
2015,05,21,01,00,15.50
2015,05,21,01,01,15.40
2015,05,21,01,02,15.40
2015,05,21,01,03,15.40
2015,05,21,01,04,15.40
2015,05,21,01,05,15.40
2015,05,21,01,06,15.40
2015,05,21,01,07,15.40
2015,05,21,01,08,15.40
2015,05,21,01,09,15.40
2015,05,21,01,10,15.40
2015,05,21,01,11,15.50
2015,05,21,01,12,15.50
2015,05,21,01,13,15.50
2015,05,21,01,14,15.60
2015,05,21,01,15,15.60
2015,05,21,01,16,15.60
2015,05,21,01,17,15.70
2015,05,21,01,18,15.70
2015,05,21,01,19,15.80
2015,05,21,01,20,15.80
2015,05,21,01,21,15.80
2015,05,21,01,22,15.80
2015,05,21,01,23,15.80
2015,05,21,01,24,15.80
2015,05,21,01,25,15.80
2015,05,21,01,26,15.80
2015,05,21,01,27,15.80
2015,05,21,01,28,15.80
2015,05,21,01,29,15.80
2015,05,21,01,30,15.80
2015,05,21,01,31,15.90
2015,05,21,01,32,15.90
2015,05,21,01,33,16.00
2015,05,21,01,34,16.00
2015,05,21,01,35,16.10
2015,05,21,01,36,16.10
2015,05,21,01,37,16.10
2015,05,21,01,38,16.10
2015,05,21,01,39,16.20
2015,05,21,01,40,16.10
2015,05,21,01,41,16.00
2015,05,21,01,42,16.00
2015,05,21,01,43,15.90
2015,05,21,01,44,15.90
2015,05,21,01,45,15.90
2015,05,21,01,46,15.80
2015,05,21,01,47,15.80
2015,05,21,01,48,15.80
2015,05,21,01,49,15.70
2015,05,21,01,50,15.70
2015,05,21,01,51,15.60
2015,05,21,01,52,15.60
2015,05,21,01,53,15.60
2015,05,21,01,54,15.60
2015,05,21,01,55,15.60
2015,05,21,01,56,15.60
2015,05,21,01,57,15.60
2015,05,21,01,58,15.60
2015,05,21,01,59,15.60
2015,05,21,02,00,15.70
2015,05,21,02,01,15.70
2015,05,21,02,02,15.80
2015,05,21,02,03,15.90
2015,05,21,02,04,16.10
2015,05,21,02,05,16.30
2015,05,21,02,06,16.50
2015,05,21,02,07,16.80
2015,05,21,02,08,17.10
2015,05,21,02,09,17.50
2015,05,21,02,10,17.80
2015,05,21,02,11,18.00
2015,05,21,02,12,18.30
2015,05,21,02,13,18.40
2015,05,21,02,14,18.50
2015,05,21,02,15,18.60
2015,05,21,02,16,18.60
2015,05,21,02,17,18.70
2015,05,21,02,18,18.80
2015,05,21,02,19,18.90
2015,05,21,02,20,19.00
2015,05,21,02,21,19.20
2015,05,21,02,22,19.30
2015,05,21,02,23,19.40
2015,05,21,02,24,19.40
2015,05,21,02,25,19.50
2015,05,21,02,26,19.50
2015,05,21,02,27,19.60
2015,05,21,02,28,19.60
2015,05,21,02,29,19.70
2015,05,21,02,30,19.70
2015,05,21,02,31,19.70
2015,05,21,02,32,19.70
2015,05,21,02,33,19.70
2015,05,21,02,34,19.80
2015,05,21,02,35,19.80
2015,05,21,02,36,19.80
2015,05,21,02,37,19.80
2015,05,21,02,38,19.80
2015,05,21,02,39,19.80
2015,05,21,02,40,19.80
2015,05,21,02,41,19.80
2015,05,21,02,42,19.80
2015,05,21,02,43,19.80
2015,05,21,02,44,19.80
2015,05,21,02,45,19.80
2015,05,21,02,46,19.80
2015,05,21,02,47,19.80
2015,05,21,02,48,19.70
2015,05,21,02,49,19.70
2015,05,21,02,50,19.60
2015,05,21,02,51,19.60
2015,05,21,02,52,19.60
2015,05,21,02,53,19.60
2015,05,21,02,54,19.60
2015,05,21,02,55,19.60
2015,05,21,02,56,19.60
2015,05,21,02,57,19.60
2015,05,21,02,58,19.60
2015,05,21,02,59,19.60
2015,05,21,03,00,19.50
2015,05,21,03,01,19.50
2015,05,21,03,02,19.50
2015,05,21,03,03,19.50
2015,05,21,03,04,19.40
2015,05,21,03,05,19.40
2015,05,21,03,06,19.40
2015,05,21,03,07,19.30
2015,05,21,03,08,19.30
2015,05,21,03,09,19.30
2015,05,21,03,10,19.20
2015,05,21,03,11,19.20
2015,05,21,03,12,19.20
2015,05,21,03,13,19.20
2015,05,21,03,14,19.20
2015,05,21,03,15,19.20
2015,05,21,03,16,19.20
2015,05,21,03,17,19.20
2015,05,21,03,18,19.20
2015,05,21,03,19,19.10
2015,05,21,03,20,19.10
2015,05,21,03,21,19.10
2015,05,21,03,22,19.10
2015,05,21,03,23,19.00
2015,05,21,03,24,19.00
2015,05,21,03,25,18.90
2015,05,21,03,26,18.90
2015,05,21,03,27,18.80
2015,05,21,03,28,18.70
2015,05,21,03,29,18.60
2015,05,21,03,30,18.50
2015,05,21,03,31,18.40
2015,05,21,03,32,18.30
2015,05,21,03,33,18.20
2015,05,21,03,34,18.20
2015,05,21,03,35,18.10
2015,05,21,03,36,18.10
2015,05,21,03,37,18.00
2015,05,21,03,38,17.90
2015,05,21,03,39,17.90
2015,05,21,03,40,17.90
2015,05,21,03,41,17.80
2015,05,21,03,42,17.80
2015,05,21,03,43,17.80
2015,05,21,03,44,17.70
2015,05,21,03,45,17.70
2015,05,21,03,46,17.70
2015,05,21,03,47,17.70
2015,05,21,03,48,17.60
2015,05,21,03,49,17.60
2015,05,21,03,50,17.60
2015,05,21,03,51,17.60
2015,05,21,03,52,17.70
2015,05,21,03,53,17.70
2015,05,21,03,54,17.70
2015,05,21,03,55,17.70
2015,05,21,03,56,17.70
2015,05,21,03,57,17.70
2015,05,21,03,58,17.70
2015,05,21,03,59,17.70
2015,05,21,04,00,17.70
2015,05,21,04,01,17.70
2015,05,21,04,02,17.70
2015,05,21,04,03,17.60
2015,05,21,04,04,17.60
2015,05,21,04,05,17.60
2015,05,21,04,06,17.50
2015,05,21,04,07,17.50
2015,05,21,04,08,17.40
2015,05,21,04,09,17.40
2015,05,21,04,10,17.30
2015,05,21,04,11,17.20
2015,05,21,04,12,17.20
2015,05,21,04,13,17.10
2015,05,21,04,14,17.00
2015,05,21,04,15,17.00
2015,05,21,04,16,16.90
2015,05,21,04,17,16.90
2015,05,21,04,18,16.80
2015,05,21,04,19,16.80
2015,05,21,04,20,16.80
2015,05,21,04,21,16.70
2015,05,21,04,22,16.70
2015,05,21,04,23,16.70
2015,05,21,04,24,16.60
2015,05,21,04,25,16.60
2015,05,21,04,26,16.60
2015,05,21,04,27,16.50
2015,05,21,04,28,16.50
2015,05,21,04,29,16.40
2015,05,21,04,30,16.30
2015,05,21,04,31,16.30
2015,05,21,04,32,16.30
2015,05,21,04,33,16.20
2015,05,21,04,34,16.20
2015,05,21,04,35,16.20
2015,05,21,04,36,16.20
2015,05,21,04,37,16.20
2015,05,21,04,38,16.10
2015,05,21,04,39,16.10
2015,05,21,04,40,16.10
2015,05,21,04,41,16.00
2015,05,21,04,42,16.00
2015,05,21,04,43,15.90
2015,05,21,04,44,15.90
2015,05,21,04,45,15.90
2015,05,21,04,46,15.80
2015,05,21,04,47,15.80
2015,05,21,04,48,15.80
2015,05,21,04,49,15.70
2015,05,21,04,50,15.70
2015,05,21,04,51,15.60
2015,05,21,04,52,15.60
2015,05,21,04,53,15.50
2015,05,21,04,54,15.50
2015,05,21,04,55,15.40
2015,05,21,04,56,15.40
2015,05,21,04,57,15.40
2015,05,21,04,58,15.30
2015,05,21,04,59,15.30
2015,05,21,05,00,15.30
2015,05,21,05,01,15.30
2015,05,21,05,02,15.30
2015,05,21,05,03,15.30
2015,05,21,05,04,15.30
2015,05,21,05,05,15.30
2015,05,21,05,06,15.40
2015,05,21,05,07,15.40
2015,05,21,05,08,15.40
2015,05,21,05,09,15.40
2015,05,21,05,10,15.40
2015,05,21,05,11,15.40
2015,05,21,05,12,15.40
2015,05,21,05,13,15.40
2015,05,21,05,14,15.40
2015,05,21,05,15,15.40
2015,05,21,05,16,15.40
2015,05,21,05,17,15.40
2015,05,21,05,18,15.40
2015,05,21,05,19,15.30
2015,05,21,05,20,15.30
2015,05,21,05,21,15.20
2015,05,21,05,22,15.10
2015,05,21,05,23,15.00
2015,05,21,05,24,15.00
2015,05,21,05,25,14.90
2015,05,21,05,26,14.90
2015,05,21,05,27,14.90
2015,05,21,05,28,14.90
2015,05,21,05,29,14.90
2015,05,21,05,30,14.90
2015,05,21,05,31,14.90
2015,05,21,05,32,14.90
2015,05,21,05,33,14.90
2015,05,21,05,34,14.90
2015,05,21,05,35,14.90
2015,05,21,05,36,14.90
2015,05,21,05,37,14.90
2015,05,21,05,38,15.00
2015,05,21,05,39,15.00
2015,05,21,05,40,15.00
2015,05,21,05,41,15.10
2015,05,21,05,42,15.10
2015,05,21,05,43,15.10
2015,05,21,05,44,15.10
2015,05,21,05,45,15.10
2015,05,21,05,46,15.10
2015,05,21,05,47,15.10
2015,05,21,05,48,15.10
2015,05,21,05,49,15.10
2015,05,21,05,50,15.10
2015,05,21,05,51,15.10
2015,05,21,05,52,15.10
2015,05,21,05,53,15.10
2015,05,21,05,54,15.10
2015,05,21,05,55,15.00
2015,05,21,05,56,15.00
2015,05,21,05,57,14.90
2015,05,21,05,58,14.90
2015,05,21,05,59,14.90
2015,05,21,06,00,14.80
2015,05,21,06,01,14.80
2015,05,21,06,02,14.80
2015,05,21,06,03,14.80
2015,05,21,06,04,14.80
2015,05,21,06,05,14.70
2015,05,21,06,06,14.70
2015,05,21,06,07,14.70
2015,05,21,06,08,14.70
2015,05,21,06,09,14.70
2015,05,21,06,10,14.70
2015,05,21,06,11,14.70
2015,05,21,06,12,14.70
2015,05,21,06,13,14.70
2015,05,21,06,14,14.60
2015,05,21,06,15,14.60
2015,05,21,06,16,14.60
2015,05,21,06,17,14.60
2015,05,21,06,18,14.60
2015,05,21,06,19,14.60
2015,05,21,06,20,14.60
2015,05,21,06,21,14.60
2015,05,21,06,22,14.60
2015,05,21,06,23,14.60
2015,05,21,06,24,14.70
2015,05,21,06,25,14.70
2015,05,21,06,26,14.70
2015,05,21,06,27,14.70
2015,05,21,06,28,14.80
2015,05,21,06,29,14.80
2015,05,21,06,30,14.80
2015,05,21,06,31,14.80
2015,05,21,06,32,14.80
2015,05,21,06,33,14.90
2015,05,21,06,34,14.90
2015,05,21,06,35,14.90
2015,05,21,06,36,14.90
2015,05,21,06,37,15.00
2015,05,21,06,38,15.00
2015,05,21,06,39,15.10
2015,05,21,06,40,15.20
2015,05,21,06,41,15.30
2015,05,21,06,42,15.30
2015,05,21,06,43,15.40
2015,05,21,06,44,15.50
2015,05,21,06,45,15.60
2015,05,21,06,46,15.60
2015,05,21,06,47,15.70
2015,05,21,06,48,15.80
2015,05,21,06,49,15.90
2015,05,21,06,50,16.00
2015,05,21,06,51,16.10
2015,05,21,06,52,16.30
2015,05,21,06,53,16.40
2015,05,21,06,54,16.50
2015,05,21,06,55,16.60
2015,05,21,06,56,16.70
2015,05,21,06,57,16.80
2015,05,21,06,58,16.90
2015,05,21,06,59,17.00
2015,05,21,07,00,17.10
2015,05,21,07,01,17.20
2015,05,21,07,02,17.20
2015,05,21,07,03,17.30
2015,05,21,07,04,17.40
2015,05,21,07,05,17.50
2015,05,21,07,06,17.50
2015,05,21,07,07,17.60
2015,05,21,07,08,17.70
2015,05,21,07,09,17.80
2015,05,21,07,10,17.80
2015,05,21,07,11,17.90
2015,05,21,07,12,17.90
2015,05,21,07,13,18.00
2015,05,21,07,14,18.10
2015,05,21,07,15,18.10
2015,05,21,07,16,18.20
2015,05,21,07,17,18.20
2015,05,21,07,18,18.30
2015,05,21,07,19,18.30
2015,05,21,07,20,18.40
2015,05,21,07,21,18.40
2015,05,21,07,22,18.40
2015,05,21,07,23,18.50
2015,05,21,07,24,18.60
2015,05,21,07,25,18.60
2015,05,21,07,26,18.60
2015,05,21,07,27,18.70
2015,05,21,07,28,18.70
2015,05,21,07,29,18.70
2015,05,21,07,30,18.80
2015,05,21,07,31,18.80
2015,05,21,07,32,18.80
2015,05,21,07,33,18.90
2015,05,21,07,34,18.90
2015,05,21,07,35,18.90
2015,05,21,07,36,19.00
2015,05,21,07,37,19.00
2015,05,21,07,38,19.10
2015,05,21,07,39,19.10
2015,05,21,07,40,19.10
2015,05,21,07,41,19.20
2015,05,21,07,42,19.20
2015,05,21,07,43,19.20
2015,05,21,07,44,19.30
2015,05,21,07,45,19.30
2015,05,21,07,46,19.30
2015,05,21,07,47,19.30
2015,05,21,07,48,19.40
2015,05,21,07,49,19.40
2015,05,21,07,50,19.40
2015,05,21,07,51,19.50
2015,05,21,07,52,19.50
2015,05,21,07,53,19.60
2015,05,21,07,54,19.60
2015,05,21,07,55,19.60
2015,05,21,07,56,19.70
2015,05,21,07,57,19.70
2015,05,21,07,58,19.80
2015,05,21,07,59,19.80
2015,05,21,08,00,19.90
2015,05,21,08,01,19.90
2015,05,21,08,02,20.00
2015,05,21,08,03,20.00
2015,05,21,08,04,20.00
2015,05,21,08,05,20.00
2015,05,21,08,06,20.00
2015,05,21,08,07,20.00
2015,05,21,08,08,20.00
2015,05,21,08,09,20.00
2015,05,21,08,10,20.00
2015,05,21,08,11,20.00
2015,05,21,08,12,20.10
2015,05,21,08,13,20.10
2015,05,21,08,14,20.10
2015,05,21,08,15,20.20
2015,05,21,08,16,20.20
2015,05,21,08,17,20.20
2015,05,21,08,18,20.30
2015,05,21,08,19,20.30
2015,05,21,08,20,20.30
2015,05,21,08,21,20.30
2015,05,21,08,22,20.40
2015,05,21,08,23,20.40
2015,05,21,08,24,20.50
2015,05,21,08,25,20.50
2015,05,21,08,26,20.50
2015,05,21,08,27,20.50
2015,05,21,08,28,20.50
2015,05,21,08,29,20.50
2015,05,21,08,30,20.50
2015,05,21,08,31,20.50
2015,05,21,08,32,20.50
2015,05,21,08,33,20.50
2015,05,21,08,34,20.40
2015,05,21,08,35,20.40
2015,05,21,08,36,20.30
2015,05,21,08,37,20.30
2015,05,21,08,38,20.30
2015,05,21,08,39,20.30
2015,05,21,08,40,20.30
2015,05,21,08,41,20.30
2015,05,21,08,42,20.30
2015,05,21,08,43,20.30
2015,05,21,08,44,20.30
2015,05,21,08,45,20.30
2015,05,21,08,46,20.30
2015,05,21,08,47,20.30
2015,05,21,08,48,20.40
2015,05,21,08,49,20.40
2015,05,21,08,50,20.40
2015,05,21,08,51,20.50
2015,05,21,08,52,20.50
2015,05,21,08,53,20.60
2015,05,21,08,54,20.60
2015,05,21,08,55,20.60
2015,05,21,08,56,20.60
2015,05,21,08,57,20.60
2015,05,21,08,58,20.60
2015,05,21,08,59,20.60
2015,05,21,09,00,20.70
2015,05,21,09,01,20.70
2015,05,21,09,02,20.70
2015,05,21,09,03,20.80
2015,05,21,09,04,20.80
2015,05,21,09,05,20.80
2015,05,21,09,06,20.80
2015,05,21,09,07,20.80
2015,05,21,09,08,20.80
2015,05,21,09,09,20.80
2015,05,21,09,10,20.80
2015,05,21,09,11,20.80
2015,05,21,09,12,20.80
2015,05,21,09,13,20.80
2015,05,21,09,14,20.80
2015,05,21,09,15,20.80
2015,05,21,09,16,20.80
2015,05,21,09,17,20.80
2015,05,21,09,18,20.80
2015,05,21,09,19,20.80
2015,05,21,09,20,20.80
2015,05,21,09,21,20.80
2015,05,21,09,22,20.70
2015,05,21,09,23,20.70
2015,05,21,09,24,20.70
2015,05,21,09,25,20.70
2015,05,21,09,26,20.70
2015,05,21,09,27,20.70
2015,05,21,09,28,20.70
2015,05,21,09,29,20.80
2015,05,21,09,30,20.80
2015,05,21,09,31,20.80
2015,05,21,09,32,20.90
2015,05,21,09,33,20.90
2015,05,21,09,34,21.00
2015,05,21,09,35,21.00
2015,05,21,09,36,21.10
2015,05,21,09,37,21.20
2015,05,21,09,38,21.20
2015,05,21,09,39,21.20
2015,05,21,09,40,21.40
2015,05,21,09,41,21.50
2015,05,21,09,42,21.60
2015,05,21,09,43,21.70
2015,05,21,09,44,21.80
2015,05,21,09,45,21.90
2015,05,21,09,46,22.00
2015,05,21,09,47,22.00
2015,05,21,09,48,22.10
2015,05,21,09,49,22.10
2015,05,21,09,50,22.10
2015,05,21,09,51,22.10
2015,05,21,09,52,22.10
2015,05,21,09,53,22.10
2015,05,21,09,54,22.10
2015,05,21,09,55,22.20
2015,05,21,09,56,22.20
2015,05,21,09,57,22.20
2015,05,21,09,58,22.20
2015,05,21,09,59,22.30
2015,05,21,10,00,22.30
2015,05,21,10,01,22.40
2015,05,21,10,02,22.50
2015,05,21,10,03,22.60
2015,05,21,10,04,22.70
2015,05,21,10,05,22.70
2015,05,21,10,06,22.80
2015,05,21,10,07,22.80
2015,05,21,10,08,22.80
2015,05,21,10,09,22.80
2015,05,21,10,10,22.70
2015,05,21,10,11,22.70
2015,05,21,10,12,22.70
2015,05,21,10,13,22.70
2015,05,21,10,14,22.70
2015,05,21,10,15,22.70
2015,05,21,10,16,22.70
2015,05,21,10,17,22.80
2015,05,21,10,18,22.80
2015,05,21,10,19,22.90
2015,05,21,10,20,23.00
2015,05,21,10,21,23.00
2015,05,21,10,22,23.10
2015,05,21,10,23,23.20
2015,05,21,10,24,23.30
2015,05,21,10,25,23.40
2015,05,21,10,26,23.40
2015,05,21,10,27,23.40
2015,05,21,10,28,23.50
2015,05,21,10,29,23.50
2015,05,21,10,30,23.60
2015,05,21,10,31,23.60
2015,05,21,10,32,23.70
2015,05,21,10,33,23.80
2015,05,21,10,34,23.80
2015,05,21,10,35,23.80
2015,05,21,10,36,23.90
2015,05,21,10,37,24.00
2015,05,21,10,38,24.10
2015,05,21,10,39,24.10
2015,05,21,10,40,24.10
2015,05,21,10,41,24.20
2015,05,21,10,42,24.20
2015,05,21,10,43,24.30
2015,05,21,10,44,24.40
2015,05,21,10,45,24.40
2015,05,21,10,46,24.50
2015,05,21,10,47,24.50
2015,05,21,10,48,24.60
2015,05,21,10,49,24.60
2015,05,21,10,50,24.50
2015,05,21,10,51,24.50
2015,05,21,10,52,24.50
2015,05,21,10,53,24.40
2015,05,21,10,54,24.40
2015,05,21,10,55,24.40
2015,05,21,10,56,24.30
2015,05,21,10,57,24.30
2015,05,21,10,58,24.40
2015,05,21,10,59,24.40
2015,05,21,11,00,24.40
2015,05,21,11,01,24.40
2015,05,21,11,02,24.40
2015,05,21,11,03,24.40
2015,05,21,11,04,24.30
2015,05,21,11,05,24.30
2015,05,21,11,06,24.40
2015,05,21,11,07,24.40
2015,05,21,11,08,24.50
2015,05,21,11,09,24.50
2015,05,21,11,10,24.60
2015,05,21,11,11,24.70
2015,05,21,11,12,24.70
2015,05,21,11,13,24.80
2015,05,21,11,14,24.80
2015,05,21,11,15,24.90
2015,05,21,11,16,24.90
2015,05,21,11,17,25.00
2015,05,21,11,18,25.00
2015,05,21,11,19,25.00
2015,05,21,11,20,25.00
2015,05,21,11,21,25.00
2015,05,21,11,22,25.10
2015,05,21,11,23,25.10
2015,05,21,11,24,25.10
2015,05,21,11,25,25.10
2015,05,21,11,26,25.10
2015,05,21,11,27,25.10
2015,05,21,11,28,25.10
2015,05,21,11,29,25.10
2015,05,21,11,30,25.00
2015,05,21,11,31,24.90
2015,05,21,11,32,24.90
2015,05,21,11,33,24.90
2015,05,21,11,34,24.90
2015,05,21,11,35,24.90
2015,05,21,11,36,24.80
2015,05,21,11,37,24.90
2015,05,21,11,38,25.00
2015,05,21,11,39,25.10
2015,05,21,11,40,25.20
2015,05,21,11,41,25.20
2015,05,21,11,42,25.30
2015,05,21,11,43,25.20
2015,05,21,11,44,25.00
2015,05,21,11,45,24.70
2015,05,21,11,46,24.30
2015,05,21,11,47,23.90
2015,05,21,11,48,23.50
2015,05,21,11,49,23.10
2015,05,21,11,50,22.70
2015,05,21,11,51,22.40
2015,05,21,11,52,22.20
2015,05,21,11,53,22.10
2015,05,21,11,54,22.10
2015,05,21,11,55,22.00
2015,05,21,11,56,21.90
2015,05,21,11,57,21.90
2015,05,21,11,58,21.80
2015,05,21,11,59,21.70
2015,05,21,12,00,21.70
2015,05,21,12,01,21.70
2015,05,21,12,02,21.70
2015,05,21,12,03,21.70
2015,05,21,12,04,21.70
2015,05,21,12,05,21.70
2015,05,21,12,06,21.70
2015,05,21,12,07,21.80
2015,05,21,12,08,21.90
2015,05,21,12,09,21.90
2015,05,21,12,10,22.00
2015,05,21,12,11,22.00
2015,05,21,12,12,22.00
2015,05,21,12,13,22.10
2015,05,21,12,14,22.10
2015,05,21,12,15,22.20
2015,05,21,12,16,22.30
2015,05,21,12,17,22.40
2015,05,21,12,18,22.50
2015,05,21,12,19,22.50
2015,05,21,12,20,22.60
2015,05,21,12,21,22.60
2015,05,21,12,22,22.60
2015,05,21,12,23,22.60
2015,05,21,12,24,22.50
2015,05,21,12,25,22.40
2015,05,21,12,26,22.40
2015,05,21,12,27,22.30
2015,05,21,12,28,22.40
2015,05,21,12,29,22.60
2015,05,21,12,30,22.70
2015,05,21,12,31,22.80
2015,05,21,12,32,22.80
2015,05,21,12,33,22.90
2015,05,21,12,34,22.90
2015,05,21,12,35,22.90
2015,05,21,12,36,22.80
2015,05,21,12,37,22.70
2015,05,21,12,38,22.50
2015,05,21,12,39,22.40
2015,05,21,12,40,22.40
2015,05,21,12,41,22.40
2015,05,21,12,42,22.30
2015,05,21,12,43,22.20
2015,05,21,12,44,22.20
2015,05,21,12,45,22.00
2015,05,21,12,46,21.80
2015,05,21,12,47,21.60
2015,05,21,12,48,21.30
2015,05,21,12,49,21.20
2015,05,21,12,50,21.00
2015,05,21,12,51,20.90
2015,05,21,12,52,20.80
2015,05,21,12,53,20.90
2015,05,21,12,54,21.10
2015,05,21,12,55,21.30
2015,05,21,12,56,21.30
2015,05,21,12,57,21.20
2015,05,21,12,58,21.20
2015,05,21,12,59,21.20
2015,05,21,13,00,21.30
2015,05,21,13,01,21.30
2015,05,21,13,02,21.40
2015,05,21,13,03,21.40
2015,05,21,13,04,21.40
2015,05,21,13,05,21.50
2015,05,21,13,06,21.60
2015,05,21,13,07,21.60
2015,05,21,13,08,21.70
2015,05,21,13,09,21.80
2015,05,21,13,10,21.90
2015,05,21,13,11,22.00
2015,05,21,13,12,22.20
2015,05,21,13,13,22.20
2015,05,21,13,14,22.00
2015,05,21,13,15,21.90
2015,05,21,13,16,21.80
2015,05,21,13,17,21.80
2015,05,21,13,18,21.90
2015,05,21,13,19,21.90
2015,05,21,13,20,21.90
2015,05,21,13,21,21.80
2015,05,21,13,22,21.80
2015,05,21,13,23,21.90
2015,05,21,13,24,22.10
2015,05,21,13,25,22.30
2015,05,21,13,26,22.40
2015,05,21,13,27,22.40
2015,05,21,13,28,22.50
2015,05,21,13,29,22.50
2015,05,21,13,30,22.50
2015,05,21,13,31,22.60
2015,05,21,13,32,22.60
2015,05,21,13,33,22.60
2015,05,21,13,34,22.70
2015,05,21,13,35,22.70
2015,05,21,13,36,22.80
2015,05,21,13,37,22.80
2015,05,21,13,38,23.00
2015,05,21,13,39,23.10
2015,05,21,13,40,23.10
2015,05,21,13,41,23.00
2015,05,21,13,42,22.90
2015,05,21,13,43,22.80
2015,05,21,13,44,22.70
2015,05,21,13,45,22.50
2015,05,21,13,46,22.30
2015,05,21,13,47,22.20
2015,05,21,13,48,22.10
2015,05,21,13,49,22.00
2015,05,21,13,50,21.90
2015,05,21,13,51,21.80
2015,05,21,13,52,21.70
2015,05,21,13,53,21.60
2015,05,21,13,54,21.40
2015,05,21,13,55,21.10
2015,05,21,13,56,20.90
2015,05,21,13,57,20.80
2015,05,21,13,58,20.60
2015,05,21,13,59,20.50
2015,05,21,14,00,20.40
2015,05,21,14,01,20.30
2015,05,21,14,02,20.30
2015,05,21,14,03,20.30
2015,05,21,14,04,20.40
2015,05,21,14,05,20.60
2015,05,21,14,06,20.80
2015,05,21,14,07,21.00
2015,05,21,14,08,21.00
2015,05,21,14,09,21.10
2015,05,21,14,10,21.30
2015,05,21,14,11,21.50
2015,05,21,14,12,21.60
2015,05,21,14,13,21.50
2015,05,21,14,14,21.40
2015,05,21,14,15,21.30
2015,05,21,14,16,21.30
2015,05,21,14,17,21.30
2015,05,21,14,18,21.20
2015,05,21,14,19,21.10
2015,05,21,14,20,21.00
2015,05,21,14,21,20.90
2015,05,21,14,22,20.80
2015,05,21,14,23,20.80
2015,05,21,14,24,20.80
2015,05,21,14,25,20.90
2015,05,21,14,26,20.90
2015,05,21,14,27,21.00
2015,05,21,14,28,21.10
2015,05,21,14,29,21.10
2015,05,21,14,30,21.00
2015,05,21,14,31,21.00
2015,05,21,14,32,21.00
2015,05,21,14,33,21.00
2015,05,21,14,34,21.10
2015,05,21,14,35,21.20
2015,05,21,14,36,21.20
2015,05,21,14,37,21.30
2015,05,21,14,38,21.50
2015,05,21,14,39,21.60
2015,05,21,14,40,21.70
2015,05,21,14,41,21.80
2015,05,21,14,42,22.00
2015,05,21,14,43,22.30
2015,05,21,14,44,22.50
2015,05,21,14,45,22.70
2015,05,21,14,46,22.90
2015,05,21,14,47,23.00
2015,05,21,14,48,23.20
2015,05,21,14,49,23.20
2015,05,21,14,50,23.10
2015,05,21,14,51,23.10
2015,05,21,14,52,23.10
2015,05,21,14,53,23.20
2015,05,21,14,54,23.20
2015,05,21,14,55,23.20
2015,05,21,14,56,23.20
2015,05,21,14,57,23.30
2015,05,21,14,58,23.40
2015,05,21,14,59,23.50
2015,05,21,15,00,23.60
2015,05,21,15,01,23.60
2015,05,21,15,02,23.60
2015,05,21,15,03,23.50
2015,05,21,15,04,23.50
2015,05,21,15,05,23.50
2015,05,21,15,06,23.60
2015,05,21,15,07,23.60
2015,05,21,15,08,23.60
2015,05,21,15,09,23.80
2015,05,21,15,10,23.80
2015,05,21,15,11,23.80
2015,05,21,15,12,23.80
2015,05,21,15,13,23.80
2015,05,21,15,14,23.80
2015,05,21,15,15,23.90
2015,05,21,15,16,23.90
2015,05,21,15,17,23.90
2015,05,21,15,18,23.90
2015,05,21,15,19,23.90
2015,05,21,15,20,23.90
2015,05,21,15,21,24.00
2015,05,21,15,22,24.00
2015,05,21,15,23,24.00
2015,05,21,15,24,24.00
2015,05,21,15,25,24.10
2015,05,21,15,26,24.10
2015,05,21,15,27,24.10
2015,05,21,15,28,24.10
2015,05,21,15,29,24.00
2015,05,21,15,30,23.90
2015,05,21,15,31,23.80
2015,05,21,15,32,23.70
2015,05,21,15,33,23.60
2015,05,21,15,34,23.50
2015,05,21,15,35,23.40
2015,05,21,15,36,23.30
2015,05,21,15,37,23.20
2015,05,21,15,38,23.10
2015,05,21,15,39,23.00
2015,05,21,15,40,22.90
2015,05,21,15,41,22.90
2015,05,21,15,42,22.80
2015,05,21,15,43,22.60
2015,05,21,15,44,22.40
2015,05,21,15,45,22.20
2015,05,21,15,46,22.00
2015,05,21,15,47,21.80
2015,05,21,15,48,21.60
2015,05,21,15,49,21.50
2015,05,21,15,50,21.30
2015,05,21,15,51,21.20
2015,05,21,15,52,21.10
2015,05,21,15,53,21.00
2015,05,21,15,54,20.90
2015,05,21,15,55,20.90
2015,05,21,15,56,20.80
2015,05,21,15,57,20.80
2015,05,21,15,58,20.70
2015,05,21,15,59,20.70
2015,05,21,16,00,20.70
2015,05,21,16,01,20.60
2015,05,21,16,02,20.60
2015,05,21,16,03,20.50
2015,05,21,16,04,20.50
2015,05,21,16,05,20.50
2015,05,21,16,06,20.50
2015,05,21,16,07,20.50
2015,05,21,16,08,20.60
2015,05,21,16,09,20.60
2015,05,21,16,10,20.60
2015,05,21,16,11,20.60
2015,05,21,16,12,20.60
2015,05,21,16,13,20.70
2015,05,21,16,14,20.70
2015,05,21,16,15,20.70
2015,05,21,16,16,20.70
2015,05,21,16,17,20.70
2015,05,21,16,18,20.70
2015,05,21,16,19,20.80
2015,05,21,16,20,20.80
2015,05,21,16,21,20.80
2015,05,21,16,22,20.90
2015,05,21,16,23,20.90
2015,05,21,16,24,20.90
2015,05,21,16,25,21.00
2015,05,21,16,26,21.00
2015,05,21,16,27,21.00
2015,05,21,16,28,21.00
2015,05,21,16,29,21.10
2015,05,21,16,30,21.10
2015,05,21,16,31,21.10
2015,05,21,16,32,21.10
2015,05,21,16,33,21.10
2015,05,21,16,34,21.10
2015,05,21,16,35,21.10
2015,05,21,16,36,21.20
2015,05,21,16,37,21.20
2015,05,21,16,38,21.20
2015,05,21,16,39,21.20
2015,05,21,16,40,21.20
2015,05,21,16,41,21.20
2015,05,21,16,42,21.20
2015,05,21,16,43,21.20
2015,05,21,16,44,21.20
2015,05,21,16,45,21.20
2015,05,21,16,46,21.30
2015,05,21,16,47,21.30
2015,05,21,16,48,21.30
2015,05,21,16,49,21.30
2015,05,21,16,50,21.30
2015,05,21,16,51,21.30
2015,05,21,16,52,21.30
2015,05,21,16,53,21.30
2015,05,21,16,54,21.40
2015,05,21,16,55,21.40
2015,05,21,16,56,21.40
2015,05,21,16,57,21.40
2015,05,21,16,58,21.40
2015,05,21,16,59,21.40
2015,05,21,17,00,21.40
2015,05,21,17,01,21.40
2015,05,21,17,02,21.40
2015,05,21,17,03,21.40
2015,05,21,17,04,21.40
2015,05,21,17,05,21.40
2015,05,21,17,06,21.40
2015,05,21,17,07,21.40
2015,05,21,17,08,21.50
2015,05,21,17,09,21.50
2015,05,21,17,10,21.60
2015,05,21,17,11,21.60
2015,05,21,17,12,21.60
2015,05,21,17,13,21.70
2015,05,21,17,14,21.70
2015,05,21,17,15,21.80
2015,05,21,17,16,21.80
2015,05,21,17,17,21.80
2015,05,21,17,18,21.80
2015,05,21,17,19,21.80